Weather History for Cleveland Burke, OH

Change the Weather History Date:

Tuesday, January 8, 2013

  Actual Average Record
Temperature  
Mean Temperature 35 °F -  
Max Temperature 42 °F 34 °F 66 °F (2008)
Min Temperature 28 °F 23 °F 6 °F (2014)
Degree Days  
Heating Degree Days 30    
Moisture  
Dew Point 24 °F    
Average Humidity 64    
Maximum Humidity 78    
Minimum Humidity 45    
Precipitation  
Precipitation 0.00 in - - ()
Sea Level Pressure  
Sea Level Pressure 30.27 in    
Wind  
Wind Speed 9 mph (South)    
Max Wind Speed 16 mph    
Max Gust Speed 26 mph    
Visibility 9 miles    
Events      
Averages and records for this station are not official NWS values.
T = Trace of Precipitation, MM = Missing Value Source: NWS Daily Summary

Daily Weather History Graph

Daily Weather History Graph

Search for Another Location

Airport:

Trip Planner

Search our weather history database for the weather conditions in past years. The results will help you decide how hot, cold, wet, or windy it might be!

Date:

Astronomy

Jan. 08, 2013 Rise Set
Actual Time 7:52 AM EST 5:14 PM EST
Civil Twilight 7:22 AM EST 5:45 PM EST
Nautical Twilight 6:47 AM EST 6:19 PM EST
Astronomical Twilight 6:14 AM EST 6:53 PM EST
Moon 4:24 AM EST (1/8) 2:15 PM EST (1/8)
Length of Visible Light 10h 23m
Length of Day
9h 21m
Waning Crescent, 14% of the Moon is Illuminated
Jan 8
Waning Crescent
Jan 11
New
Jan 18
First Quarter
Jan 26
Full
Feb 3
Last Quarter

Hourly Weather History & Observations

Time (EST) Temp. Windchill Dew Point Humidity Pressure Visibility Wind Dir Wind Speed Gust Speed Precip Events Conditions
12:53 AM 30.0 °F 24.1 °F 23.0 °F 75% 30.24 in 7.0 mi SSE 5.8 mph - N/A   Clear
1:53 AM 28.9 °F 23.9 °F 23.0 °F 78% 30.24 in 7.0 mi SSE 4.6 mph - N/A   Clear
2:53 AM 30.0 °F 24.1 °F 23.0 °F 75% 30.23 in 7.0 mi Variable 5.8 mph - N/A   Clear
3:53 AM 32.0 °F 21.2 °F 23.0 °F 69% 30.23 in 10.0 mi SSW 16.1 mph 26.5 mph N/A   Clear
4:53 AM 33.1 °F 24.9 °F 23.0 °F 66% 30.24 in 10.0 mi SSW 10.4 mph 20.7 mph N/A   Clear
5:53 AM 33.1 °F 23.9 °F 23.0 °F 66% 30.25 in 10.0 mi SW 12.7 mph - N/A   Clear
6:53 AM 33.1 °F 24.9 °F 23.0 °F 66% 30.26 in 10.0 mi South 10.4 mph - N/A   Clear
7:53 AM 32.0 °F 23.6 °F 23.0 °F 69% 30.28 in 8.0 mi South 10.4 mph - N/A   Clear
8:53 AM 28.9 °F 21.1 °F 23.0 °F 78% 30.30 in 5.0 mi SSE 8.1 mph - N/A   Haze
9:53 AM 30.9 °F 23.5 °F 24.1 °F 76% 30.31 in 6.0 mi SSE 8.1 mph - N/A   Haze
10:53 AM 36.0 °F 28.0 °F 24.1 °F 62% 30.30 in 8.0 mi South 11.5 mph - N/A   Clear
11:53 AM 37.9 °F 30.9 °F 24.1 °F 57% 30.29 in 10.0 mi SSW 10.4 mph - N/A   Clear
12:53 PM 39.9 °F 34.5 °F 24.1 °F 53% 30.28 in 10.0 mi SW 8.1 mph - N/A   Clear
1:53 PM 39.9 °F 35.1 °F 25.0 °F 55% 30.27 in 10.0 mi SW 6.9 mph - N/A   Clear
2:53 PM 42.1 °F 37.1 °F 23.0 °F 47% 30.28 in 10.0 mi SW 8.1 mph - N/A   Mostly Cloudy
3:53 PM 42.1 °F 37.7 °F 21.9 °F 45% 30.28 in 10.0 mi SSW 6.9 mph - N/A   Clear
4:53 PM 42.1 °F 37.1 °F 23.0 °F 47% 30.29 in 10.0 mi South 8.1 mph - N/A   Clear
5:53 PM 41.0 °F 35.8 °F 25.0 °F 53% 30.29 in 10.0 mi SSE 8.1 mph - N/A   Clear
6:53 PM 39.0 °F 31.8 °F 27.0 °F 62% 30.29 in 10.0 mi SSE 11.5 mph - N/A   Clear
7:53 PM 37.9 °F 30.5 °F 27.0 °F 65% 30.29 in 10.0 mi SSE 11.5 mph - N/A   Clear
8:53 PM 37.0 °F 29.3 °F 28.0 °F 70% 30.29 in 10.0 mi SSE 11.5 mph - N/A   Clear
9:53 PM 37.0 °F 29.3 °F 28.0 °F 70% 30.27 in 10.0 mi SSE 11.5 mph - N/A   Clear
10:53 PM 37.0 °F 29.8 °F 28.0 °F 70% 30.26 in 10.0 mi SSE 10.4 mph - N/A   Clear
11:53 PM 37.0 °F 28.9 °F 28.0 °F 70% 30.24 in 10.0 mi SSE 12.7 mph - N/A   Clear